User: anonymous   Login
Location: Unspecified
(0.0000°N, 0.0000°E)
Time: 05:21:43
(UTC+00:00)
Language:

CALIPSO - Orbit

View from above orbital plane
View from above orbital plane
View from above satellite
View from above satellite

Ground track
Ground track

The orbit data is extracted from the following two-line orbital elements,

1 29108U 06016B   18319.95243698  .00000136  00000-0  36198-4 0  9992
2 29108  98.1620 261.4807 0001247  80.5782 279.5560 14.62271293667640
Epoch (UTC): 15 November 2018 22:51:30
Eccentricity: 0.0001247
inclination: 98.1620°
perigee height: 685 km
apogee height: 687 km
right ascension of ascending node: 261.4807°
argument of perigee: 80.5782°
revolutions per day: 14.62271293
mean anomaly at epoch: 279.5560°
orbit number at epoch: 66764

The dashed part of the orbit path shows where the satellite is in the earth's shadow,  

DLR